Regional Weather Roundup
Issued by NWS

Home | Current Version | Previous Version | Text Only | Print | Product List | Glossary Off
Versions: 1 2 3 4 5 6 7 8 9 10 11 12 13 14 15 16 17 18 19 20 21 22 23 24 25 26 27

000
ASUS45 KCYS 200410
RWRWY

WYOMING REGIONAL WEATHER ROUNDUP
NATIONAL WEATHER SERVICE CHEYENNE WY
900 PM MST SUN FEB 19 2017

NOTE:  "FAIR" INDICATES FEW OR NO CLOUDS BELOW 12,000 FEET
WITH NO SIGNIFICANT WEATHER AND/OR OBSTRUCTIONS TO VISIBILITY.

WYZ001-200500-
YELLOWSTONE NATIONAL PARK

CITY           SKY/WX    TMP DP  RH WIND       PRES   REMARKS
LK YELLOWSTONE   N/A     24  20  84 VRB5      29.81R WCI  18
W YELLOWSTONE  NOT AVBL

$$
WYZ002>013-054>058-071-098>099-200500-
NORTHERN WYOMING

CITY           SKY/WX    TMP DP  RH WIND       PRES   REMARKS
JACKSON        CLEAR     28  23  80 S17       29.81S WCI  16
CODY           FAIR      37  28  70 S10       29.71R WCI  30
GREYBULL       CLOUDY    44  26  49 W8        29.66R
WORLAND        MOCLDY    39  34  82 SE9       29.68R WCI  33
SHERIDAN       LGT RAIN  44  34  67 W10G23    29.67R
BUFFALO        CLOUDY    43  33  68 N21G28    29.63R
GILLETTE       FAIR      42  33  70 NE5       29.60R
HULETT         FAIR      50  32  50 NW5       29.59R
NEWCASTLE      FAIR      46  32  57 SE8       29.62R

$$
WYZ014>020-022>026-101>103-200500-
CENTRAL WYOMING

CITY           SKY/WX    TMP DP  RH WIND       PRES   REMARKS
BIG PINEY      FAIR      24  21  88 CALM      29.87R
PINEDALE       FAIR      23  21  93 NW3       29.88R
DUBOIS         FAIR      28  16  59 NW16G23   29.78R WCI  17
LANDER         FAIR      35  23  61 NE10      29.75R WCI  27
RIVERTON       FAIR      35  27  72 W18       29.76R WCI  24
CASPER         FAIR      40  29  64 SW13      29.69R WCI  32
DOUGLAS        CLOUDY    46  31  55 SW12      29.67R

$$
WYZ021-027>030-104>119-200500-
SOUTHERN WYOMING

CITY           SKY/WX    TMP DP  RH WIND       PRES   REMARKS
EVANSTON       FOG       30  28  92 S7        29.90R VSB 1/4 WCI  23
KEMMERER         N/A     27  21  80 W8        29.89R WCI  18
FORT BRIDGER   FAIR      32  31  96 W10       29.92R WCI  23
ROCK SPRINGS   FAIR      31  27  85 SW10      29.87R WCI  22
DIXON            N/A     32  31  96 N3        29.92R
RAWLINS        NOT AVBL
SARATOGA       MOCLDY    32  32 100 W10       29.85R WCI  24
LARAMIE        MOCLDY    34  31  88 W12       29.75R WCI  25
CHEYENNE       CLOUDY    43  34  70 NW8       29.70R
TORRINGTON     LGT RAIN  51  36  56 W16G24    29.64R
PINE BLUFFS    CLOUDY    45  34  65 NW20G25   29.66S

$$




USA.gov is the U.S. government's official web portal to all federal, state and local government web resources and services.